Regional Weather Roundup
Issued by NWS Nashville, TN

Home | Current Version | Previous Version | Text Only | Print | Product List | Glossary On
Versions: 1 2 3 4 5 6 7 8 9 10 11 12 13 14 15 16 17 18 19 20 21 22 23 24 25 26 27 28
000
ASUS44 KOHX 030510
RWROHX
MIDDLE TENNESSEE HOURLY WEATHER ROUNDUP
NATIONAL WEATHER SERVICE NASHVILLE TN
1200 AM CDT TUE MAY 03 2016

NOTE: "FAIR" INDICATES FEW OR NO CLOUDS BELOW 12,000 FEET WITH
NO SIGNIFICANT WEATHER AND/OR OBSTRUCTIONS TO VISIBILITY.

* THESE REPORTS ARE NOT UNDER NWS QUALITY CONTROL AND MAY NOT
  REPORT WEATHER SUCH AS PRECIPITATION AND FOG.


TNZ005>011-023>034-057-059-062>066-078-080-030600
...NORTHERN MIDDLE TENNESSEE...

CITY           SKY/WX    TMP DP  RH WIND       PRES   REMARKS
CLARKSVILLE    CLOUDY    57  50  77 N8        29.98F
CROSSVILLE     CLOUDY    61  57  87 W3        29.95F
NASHVILLE      LGT RAIN  60  56  86 NW7       29.96F
SMYRNA         CLOUDY    59  58  96 NW6       29.97F
SPARTA         CLOUDY    59  59 100 VRB5      29.94S
$$
TNZ056-058-060-061-075>077-079-093>097-030600
...SOUTHERN MIDDLE TENNESSEE...

CITY           SKY/WX    TMP DP  RH WIND       PRES   REMARKS
COLUMBIA       CLOUDY   N/A N/A N/A CALM      29.95S
FAYETTEVILLE   CLOUDY    61  59  94 N9G15     29.94F
MCMINNVILLE    CLOUDY    61  61 100 NW7       29.94F
SHELBYVILLE    CLOUDY    61  61 100 N5        29.96F
TULLAHOMA      CLOUDY    57  57 100 NW6       29.95F
WINCHESTER     CLOUDY    63  61  94 VRB6      29.94F
$$


...KEY TO REMARKS...
VSB - VISIBILITY IN MILES
WCI - WIND CHILL INDEX
HX  - HEAT INDEX





USA.gov is the U.S. government's official web portal to all federal, state and local government web resources and services.